STARLINK-30280 (57643 NORAD) Tracking and Keplerian Element Data

This shows tracking and keplerian element data for the satellite.

Feedback or suggestion? Click here.




ElementValue
Catalog57643
NameSTARLINK-30280
Epoch Orbit279
Epoch Day238.91667824
Epoch Year2023
RAAN95.9249
Inclination43.0009
Eccentricity0.0004542
Argument of Perigee162.2456
Mean Anonmoly262.753
Mean Motion15.86072662
Decay Rate-0.00872538
L11 57643U 23122M 23238.91667824 -.00872538 00000+0 -37571-2 0 9995
L22 57643 43.0009 95.9249 0004542 162.2456 262.7530 15.86072662 2798



Live tracking and technical data element details for STARLINK-30280 (NORAD 57643). STARLINK-30280 can be tracked NOW for your location showing map with azimuth and elevation plus other details from your city location.







IsCatalogInMostPopularTable: catalog: 57643, numindb: 7
Update: records affected: 1



GetName: 57643 STARLINK-30280

Hit Count: updated at: Tue, 26 Sep 2023 12:30:51 GMT